[[{"header":{"parameterUnit":"m.s-1","parameterCategory":1,"la1":30.2991,"la2":30.254,"lo1":-89.0895,"lo2":-89.0444,"dy":0.0017,"dx":0.0017,"nx":28,"ny":28,"refTime":"2024-08-22T21:00:00:Z","depth":0,"parameterNumber":2,"parameterNumberName":"U-component_of_WINDS"},"data":[0,0,0,0,0,0,0,0,0,0,0,0,0,0,0,0,0,0,0,0,0,0,0,0,0,0,0,0,0,0,0,0,0,0,0,0,0,0,0,0,0,0,0,0,0,0,0,0,0,0,0,0,0,0,0,0,0,0,-6.0301,-6.03,0,-6.0227,-6.0226,-6.0226,-6.0033,-6.0029,-6.0025,-6.0021,-5.9951,-5.9953,-5.9955,0,0,0,0,0,0,0,0,0,0,0,0,0,-6.0283,-6.0284,-6.0301,-6.03,-6.0299,-6.0227,-6.0226,-6.0225,-6.0034,-6.0029,-6.0024,-6.002,-5.9951,-5.9953,-5.9956,0,0,0,0,0,0,0,0,0,0,0,0,0,-6.0258,-6.0285,-6.0301,-6.0195,-6.0185,-6.0228,-6.0226,-6.0225,-6.0035,-6.0029,-6.0023,-6.0017,-5.995,-5.9953,-5.9956,-6.0097,0,0,-5.9965,-5.9966,0,0,0,0,0,0,0,0,-6.026,-6.0259,-6.0212,-6.0202,-6.0191,-6.0133,-6.0194,-6.0183,-6.0037,-6.0092,-6.0021,-6.0014,-6.0017,-6.0014,-6.0014,-6.0094,-6.0091,-5.9965,-5.9967,-5.9968,-5.9969,0,0,0,0,0,0,0,-6.0262,-6.0261,-6.0272,-6.0211,-6.0199,-6.0153,-6.0143,-6.0191,-6.009,-6.0087,-6.0073,-6.0066,-6.001,-6.0012,-6.0011,-6.009,-5.9965,-5.9968,-5.9969,-5.9971,-6.0284,-6.029,0,0,0,0,0,0,-6.0278,-6.0264,-6.0274,-6.027,-6.0211,-6.0159,-6.0147,-6.0158,-6.0089,-6.0073,-6.0072,-6.0058,-6.001,-6.0008,-6.0008,-6.0169,-5.9968,-5.9971,-5.9973,-6.0277,-6.0285,-6.0292,0,0,0,0,0,0,-6.0278,-6.0281,-6.0277,-6.0263,-6.0259,-6.0165,-6.0179,-6.016,-6.016,-6.0078,-6.0059,-6.0091,-6.0005,-6.0004,-6.0076,-6.0164,-5.9972,-5.9975,-6.027,-6.028,-6.0289,-6.0492,0,0,0,0,0,0,-6.0279,-6.0282,-6.0333,-6.0265,-6.026,-6.0345,-6.0185,-6.0163,-6.0166,-6.0147,-6.0091,-6.0076,-6.0,-6.0073,-6.0079,-6.0164,-5.9977,-6.0261,-6.0274,-6.0286,-6.0477,-6.0508,-6.0534,0,0,0,0,0,-6.0279,-6.0394,-6.0337,-6.0339,-6.0322,-6.0351,-6.0348,-6.0256,-6.0173,-6.0225,-6.0172,-6.0078,-6.0154,-6.0082,-6.0088,-6.0175,-6.0255,-6.0271,-6.0285,-6.0465,-6.0502,-6.0533,0,0,0,0,0,0,-6.0476,-6.0383,-6.0318,-6.0415,-6.0392,-6.0318,-6.038,-6.0299,-6.03,-6.0283,-6.0171,-6.016,-6.0249,-6.0219,-6.0141,-6.0309,-6.0189,-6.0206,-6.0324,-6.0359,-6.0387,-6.0391,-5.998,0,0,0,0,0,-6.053,-6.0559,-6.0478,-6.0571,-6.0563,-6.0475,-6.0484,-6.0415,-6.0388,-6.0377,-6.0329,-6.0308,-6.0327,-6.0342,-6.0354,-6.0473,-6.0459,-6.0536,-6.0565,-6.0588,-6.0604,-6.0665,-6.0698,-6.0341,-6.0341,-6.034,0,0,-6.0643,-6.0597,-6.0622,-6.061,-6.0584,-6.0618,-6.0467,-6.051,-6.0535,-6.0384,-6.0448,-6.0414,-6.0383,-6.048,-6.052,-6.0458,-6.07,-6.0607,-6.0627,-6.0629,-6.0684,-6.0718,-6.0748,-6.0351,-6.0349,-6.0347,0,0,-6.0866,-6.0834,-6.0908,-6.0886,-6.0848,-6.0789,-6.0807,-6.0746,-6.0717,-6.078,-6.0668,-6.0698,-6.0732,-6.0715,-6.0711,-6.0931,-6.0845,-6.0939,-6.1086,-6.1147,-6.1176,-6.12,-6.1278,-6.1308,-6.0955,-6.0955,-6.0956,0,-6.1012,-6.1057,-6.0957,-6.1007,-6.1006,-6.087,-6.0946,-6.093,-6.09,-6.0903,-6.0834,-6.0875,-6.0845,-6.0935,-6.099,-6.0991,-6.1009,-6.0943,-6.1179,-6.1203,-6.1224,-6.1298,-6.1327,-6.0967,-6.0965,-6.0964,-6.0963,0,-6.1238,-6.1272,-6.1337,-6.1309,-6.1316,-6.1379,-6.129,-6.1309,-6.1242,-6.1191,-6.1259,-6.1218,-6.122,-6.1238,-6.1173,-6.132,-6.1283,-6.1199,-6.1076,-6.1271,-6.1339,-6.1366,-6.0983,-6.0979,-6.0976,-6.0973,0,0,-6.158,-6.1498,-6.1523,-6.1509,-6.146,-6.1485,-6.1544,-6.1544,-6.1563,-6.1548,-6.1595,-6.1629,-6.1551,-6.1547,-6.1479,-6.1533,-6.1711,-6.1442,-6.144,-6.1493,-6.1871,-6.1934,-6.1968,-6.1654,-6.1659,-6.1663,-6.1873,0,-6.1789,-6.188,-6.1794,-6.1904,-6.1934,-6.1808,-6.1859,-6.1836,-6.1791,-6.1812,-6.1763,-6.1788,-6.1684,-6.1681,-6.1729,-6.1679,-6.1785,-6.1663,-6.1697,-6.17,-6.1707,-6.2003,-6.2068,-6.2268,-6.1899,-6.1904,-6.1907,0,-6.2044,-6.204,-6.2152,-6.2096,-6.2106,-6.2153,-6.2148,-6.217,-6.2142,-6.2105,-6.2102,-6.202,-6.2076,-6.1958,-6.2033,-6.1953,-6.1962,-6.1941,-6.1946,-6.1944,-6.1814,-6.2008,-6.233,-6.236,-6.1947,-6.1944,-6.1941,0,-6.2281,-6.2304,-6.2374,-6.2367,-6.2304,-6.234,-6.2316,-6.2281,-6.2288,-6.2285,-6.2289,-6.2294,-6.2296,-6.2303,-6.2225,-6.2146,-6.2311,-6.2186,-6.2283,-6.2285,-6.2321,-6.232,-6.2649,-6.2331,-6.2331,-6.233,-6.233,0,-6.2523,-6.2596,-6.2479,-6.2523,-6.2602,-6.2504,-6.2586,-6.2549,-6.2521,-6.2556,-6.2449,-6.2485,-6.2381,-6.2407,-6.2348,-6.242,-6.2422,-6.2395,-6.2378,-6.2404,-6.2407,-6.2407,-6.239,-6.2338,-6.2337,-6.2335,-6.2334,0,-6.2799,-6.2724,-6.2792,-6.2727,-6.2713,-6.2775,-6.272,-6.2759,-6.2708,-6.2754,-6.276,-6.2681,-6.2706,-6.263,-6.2644,-6.2603,-6.2708,-6.2669,-6.2717,-6.2705,-6.2805,-6.2796,-6.3144,-6.3184,-6.2843,-6.2847,-6.285,0,-6.2957,-6.301,-6.2952,-6.2967,-6.2948,-6.2975,-6.2981,-6.2888,-6.2899,-6.2873,-6.2916,-6.2932,-6.2939,-6.2986,-6.2931,-6.2942,-6.2901,-6.3023,-6.2902,-6.2927,-6.2902,-6.2899,-6.2904,-6.3047,-6.3051,-6.3055,-6.3057,0,-6.3245,-6.3206,-6.3217,-6.3218,-6.3229,-6.3225,-6.3214,-6.3234,-6.3134,-6.3153,-6.3176,-6.3183,-6.3197,-6.3215,-6.3214,-6.3191,-6.3109,-6.3096,-6.3119,-6.3144,-6.3169,-6.3156,-6.2783,-6.3088,-6.3085,-6.3083,-6.3081,-6.308,-6.3466,-6.3508,-6.3473,-6.3491,-6.3473,-6.3466,-6.3499,-6.3453,-6.347,-6.3473,-6.3418,-6.3454,-6.3427,-6.3417,-6.3403,-6.3431,-6.3375,-6.3409,-6.3417,-6.3426,-6.3442,-6.3167,-6.3431,-6.343,-6.3429,-6.3428,-6.3428,0,-6.3747,-6.3719,-6.3737,-6.3724,-6.374,-6.3661,-6.3645,-6.3663,-6.3695,-6.3677,-6.3687,-6.3715,-6.3733,-6.3681,-6.3691,-6.3724,-6.3686,-6.373,-6.3725,-6.3722,-6.3492,-6.3471,-6.376,-6.3759,-6.3759,-6.3759,-6.3759,-6.3759,-6.3895,-6.3962,-6.3919,-6.3978,-6.3949,-6.3982,-6.398,-6.3974,-6.3958,-6.3995,-6.4008,-6.3974,-6.3942,-6.395,-6.3963,-6.3947,-6.3956,-6.4012,-6.3984,-6.377,-6.3738,-6.3707,-6.3686,-6.4015,-6.4016,-6.421,-6.4212,-6.4214]},{"header":{"parameterUnit":"m.s-1","parameterCategory":1,"la1":30.2991,"la2":30.254,"lo1":-89.0895,"lo2":-89.0444,"dy":0.0017,"dx":0.0017,"nx":28,"ny":28,"refTime":"2024-08-22T21:00:00:Z","depth":0,"parameterNumber":3,"parameterNumberName":"V-component_of_WINDS"},"data":[0,0,0,0,0,0,0,0,0,0,0,0,0,0,0,0,0,0,0,0,0,0,0,0,0,0,0,0,0,0,0,0,0,0,0,0,0,0,0,0,0,0,0,0,0,0,0,0,0,0,0,0,0,0,0,0,0,0,2.0608,2.0609,0,2.0692,2.0693,2.0693,2.0797,2.0798,2.08,2.0801,2.0881,2.0882,2.0882,0,0,0,0,0,0,0,0,0,0,0,0,0,2.0536,2.0537,2.0608,2.0609,2.061,2.0691,2.0693,2.0694,2.0796,2.0798,2.08,2.0802,2.0881,2.0882,2.0882,0,0,0,0,0,0,0,0,0,0,0,0,0,2.0588,2.0537,2.0608,2.0672,2.0678,2.0691,2.0693,2.0694,2.0796,2.0798,2.0801,2.0803,2.0881,2.0882,2.0882,2.0838,0,0,2.0885,2.0885,0,0,0,0,0,0,0,0,2.0585,2.059,2.0661,2.0667,2.0675,2.0736,2.0696,2.0742,2.0795,2.0751,2.0801,2.0804,2.0831,2.0836,2.0846,2.0842,2.0845,2.0885,2.0886,2.0886,2.0886,0,0,0,0,0,0,0,2.0581,2.0587,2.0641,2.0662,2.067,2.0695,2.0705,2.0706,2.0776,2.0755,2.0763,2.0771,2.0835,2.0845,2.0848,2.0847,2.0885,2.0886,2.0886,2.0887,2.0813,2.0811,0,0,0,0,0,0,2.0568,2.0584,2.0639,2.0644,2.0635,2.0694,2.0706,2.0714,2.0776,2.0788,2.0769,2.0776,2.0842,2.0847,2.0852,2.0805,2.0886,2.0887,2.0887,2.0816,2.0813,2.081,0,0,0,0,0,0,2.0567,2.0572,2.0635,2.0616,2.0626,2.0693,2.0701,2.0714,2.0724,2.0787,2.0799,2.0767,2.0844,2.085,2.0842,2.0809,2.0887,2.0888,2.0819,2.0815,2.0811,2.071,0,0,0,0,0,0,2.0564,2.0571,2.0555,2.0615,2.0626,2.0624,2.0699,2.0714,2.0726,2.0736,2.0788,2.0799,2.0847,2.084,2.0843,2.0812,2.0889,2.0822,2.0817,2.0813,2.0717,2.0704,2.0693,0,0,0,0,0,2.0561,2.0522,2.0554,2.056,2.0608,2.0622,2.0629,2.0686,2.0723,2.0708,2.0748,2.0797,2.0813,2.0838,2.0842,2.0811,2.0824,2.0818,2.0813,2.0722,2.0706,2.0693,0,0,0,0,0,0,2.0454,2.0531,2.0567,2.0546,2.0577,2.064,2.0621,2.0667,2.0686,2.0694,2.0763,2.0774,2.0757,2.0784,2.081,2.0773,2.0826,2.0821,2.0756,2.0741,2.0729,2.0722,2.089,0,0,0,0,0,2.0428,2.0434,2.0501,2.0476,2.049,2.0553,2.0561,2.0603,2.0637,2.065,2.069,2.072,2.0732,2.0738,2.0753,2.0722,2.0735,2.0703,2.0691,2.0681,2.0675,2.0662,2.0648,2.0792,2.0792,2.0792,0,0,2.0374,2.0417,2.0416,2.0456,2.0485,2.0489,2.0563,2.0563,2.0567,2.065,2.0645,2.0675,2.0714,2.0694,2.0688,2.0715,2.0639,2.0673,2.0665,2.0665,2.0655,2.0641,2.0629,2.0788,2.0789,2.0789,0,0,2.0278,2.0311,2.0295,2.0324,2.0368,2.0411,2.0407,2.0463,2.0488,2.0484,2.0547,2.0552,2.0571,2.0596,2.0611,2.0529,2.0575,2.0532,2.0467,2.0453,2.0442,2.0433,2.0403,2.0392,2.0526,2.0526,2.0526,0,2.0204,2.0214,2.028,2.0278,2.0294,2.0372,2.0356,2.038,2.0425,2.0434,2.0466,2.0494,2.0525,2.0513,2.0493,2.0503,2.05,2.0525,2.0439,2.043,2.0422,2.0394,2.0383,2.052,2.0521,2.0522,2.0522,0,2.0122,2.0128,2.011,2.0155,2.0169,2.0159,2.0223,2.023,2.0271,2.0311,2.0307,2.0348,2.0373,2.0374,2.0413,2.0368,2.0385,2.0426,2.0481,2.0401,2.0377,2.0367,2.0513,2.0515,2.0516,2.0518,0,0,1.9957,2.0042,2.0034,2.0056,2.0113,2.0118,2.0113,2.014,2.0144,2.0174,2.0171,2.0187,2.0227,2.0245,2.0288,2.0277,2.021,2.0321,2.0323,2.0298,2.0163,2.013,2.0117,2.0241,2.024,2.0238,2.016,0,1.987,1.9867,1.9928,1.9908,1.9915,1.9992,1.9988,2.0021,2.0059,2.007,2.0111,2.0121,2.0174,2.0185,2.0177,2.0219,2.0183,2.0226,2.0238,2.0238,2.0225,2.0104,2.0069,1.9993,2.0151,2.0149,2.0148,0,1.9768,1.9795,1.9776,1.9836,1.9841,1.9836,1.9867,1.9877,1.9918,1.9946,1.9967,2.0018,2.0017,2.0071,2.007,2.0098,2.0107,2.0129,2.0127,2.0129,2.0187,2.0102,1.997,1.9958,2.0133,2.0135,2.0136,0,1.9649,1.9681,1.9674,1.9691,1.9761,1.9756,1.9784,1.9828,1.9841,1.9868,1.9877,1.9902,1.9916,1.9934,1.9991,2.0025,1.9984,2.0042,2.0007,2.0005,1.9993,1.9992,1.9859,2.0,2.0,2.0,2.0001,0,1.9545,1.953,1.9622,1.9618,1.9604,1.9675,1.9659,1.9695,1.9734,1.9738,1.9805,1.9807,1.9883,1.9893,1.9938,1.9931,1.9936,1.9959,1.997,1.9952,1.9949,1.9957,1.9964,1.9998,1.9998,1.9999,1.9999,0,1.9408,1.9469,1.9467,1.9535,1.9552,1.9539,1.9597,1.9596,1.9639,1.9643,1.9648,1.9716,1.9732,1.9791,1.9821,1.9851,1.9829,1.9853,1.9816,1.9824,1.9785,1.9788,1.9652,1.9638,1.9787,1.9786,1.9785,0,1.9337,1.9328,1.9396,1.9405,1.9431,1.9444,1.9459,1.9529,1.9542,1.9589,1.9582,1.9604,1.9626,1.9648,1.9698,1.9722,1.9746,1.9697,1.975,1.9732,1.9745,1.9745,1.9744,1.9685,1.9683,1.9681,1.968,0,1.9204,1.9236,1.9256,1.9287,1.9304,1.9331,1.9362,1.9365,1.9443,1.9454,1.9473,1.9489,1.9522,1.9543,1.9576,1.9604,1.9654,1.9663,1.9657,1.9637,1.9616,1.9627,1.9784,1.9665,1.9667,1.9668,1.9669,1.9669,1.9098,1.9094,1.9143,1.9163,1.9195,1.9224,1.9227,1.9272,1.929,1.9323,1.9364,1.9377,1.9421,1.947,1.9495,1.9507,1.9535,1.9524,1.9522,1.9518,1.9509,1.9615,1.9513,1.9514,1.9514,1.9515,1.9515,0,1.8968,1.9005,1.9023,1.9066,1.9083,1.9133,1.917,1.918,1.9192,1.923,1.9251,1.9273,1.9295,1.9349,1.9376,1.9375,1.9398,1.9379,1.9379,1.9385,1.9483,1.9486,1.936,1.936,1.936,1.936,1.936,1.936,1.8903,1.8901,1.8939,1.8953,1.8989,1.9005,1.9023,1.905,1.908,1.9103,1.9122,1.9159,1.9203,1.9234,1.9256,1.9272,1.9278,1.9251,1.9274,1.9363,1.9378,1.9392,1.9396,1.9252,1.9252,1.9175,1.9175,1.9174]}]]